{"data":{"norad_id":68218,"intl_designator":"2026-053M","name":"STARLINK-37108","alt_names":[],"object_type":"PAYLOAD","status":"ACTIVE","operator":null,"country":"US","launch_date":"2026-03-17","launch_site_code":"AFWTR","launch_vehicle":null,"mission":null,"orbit_class":"UNKNOWN","rcs_meters":null,"size_class":null,"mass_kg":null,"dimensions":null,"purposes":["comms"],"wikipedia_slug":null,"has_3d_model":false,"image_url":null,"decayed_at":null,"tle_current":{"epoch":"2026-09-20T02:44:35.335968Z","epoch_age_seconds":84961,"freshness":"FRESH","line1":"1 68218U 26053M   26263.11429787  .00010153  00000+0  31628-3 0  9991","line2":"2 68218  97.2840 136.8869 0004673  86.4473 273.7304 15.33447374 30011","mean_motion":15.33447374,"eccentricity":0.0004673,"inclination_deg":97.284,"raan_deg":136.8869,"arg_perigee_deg":86.4473,"mean_anomaly_deg":273.7304,"bstar":0.00031628,"rev_number":3001,"period_min":93.906059276345,"perigee_km":462.33806268866,"apogee_km":468.73415957833,"semimajor_km":6843.6731111335,"source":"CELESTRAK","updated_at":"2026-09-20T09:00:43.834961Z"}}}